Saint Bonnet de Bellac- Haute Vienne - France
Donnes mto: mercredi, 10/10/2012
Date Horaire Temp. E. Hum. E. P.atmo. Pluie Vent Direction Direction Ensoleilleme Solaire P. de rose Temp au vent Rafales
10/10/2012 00:00 16,9 C 93 % 1014,8 hPa 0,0 mm 3,6 km/h (1 Bft) SO 225 0 min 0 W/m 15,8 C 16,9 C 6,8 km/h (2 Bft)
10/10/2012 00:10 16,9 C 93 % 1014,7 hPa 0,0 mm 3,2 km/h (1 Bft) S-SO 202 0 min 0 W/m 15,8 C 16,9 C 3,2 km/h (1 Bft)
10/10/2012 00:20 16,9 C 93 % 1014,7 hPa 0,0 mm 2,2 km/h (1 Bft) SO 225 0 min 0 W/m 15,8 C 16,9 C 3,6 km/h (1 Bft)
10/10/2012 00:30 16,8 C 94 % 1014,7 hPa 0,0 mm 3,6 km/h (1 Bft) SO 225 0 min 0 W/m 15,8 C 16,8 C 6,5 km/h (2 Bft)
10/10/2012 00:40 16,8 C 94 % 1014,7 hPa 0,0 mm 2,5 km/h (1 Bft) SO 225 0 min 0 W/m 15,8 C 16,8 C 4,0 km/h (1 Bft)
10/10/2012 00:50 16,8 C 93 % 1014,7 hPa 0,0 mm 0,0 km/h (0 Bft) O-SO 247 0 min 0 W/m 15,7 C 16,8 C 0,0 km/h (0 Bft)
10/10/2012 01:00 16,8 C 93 % 1014,8 hPa 0,0 mm 2,5 km/h (1 Bft) SO 225 0 min 0 W/m 15,7 C 16,8 C 4,0 km/h (1 Bft)
10/10/2012 01:10 16,8 C 93 % 1014,7 hPa 0,0 mm 2,9 km/h (1 Bft) SO 225 0 min 0 W/m 15,7 C 16,8 C 3,6 km/h (1 Bft)
10/10/2012 01:20 16,8 C 93 % 1014,6 hPa 0,0 mm 2,9 km/h (1 Bft) S 180 0 min 0 W/m 15,7 C 16,8 C 4,0 km/h (1 Bft)
10/10/2012 01:30 16,8 C 93 % 1014,7 hPa 0,0 mm 1,1 km/h (1 Bft) O-SO 247 0 min 0 W/m 15,7 C 16,8 C 1,1 km/h (1 Bft)
10/10/2012 01:40 16,8 C 93 % 1014,5 hPa 0,0 mm 3,6 km/h (1 Bft) SO 225 0 min 0 W/m 15,7 C 16,8 C 6,1 km/h (2 Bft)
10/10/2012 01:50 16,6 C 93 % 1014,5 hPa 0,0 mm 3,6 km/h (1 Bft) N 360 0 min 0 W/m 15,5 C 16,6 C 3,6 km/h (1 Bft)
10/10/2012 02:00 16,6 C 93 % 1014,5 hPa 0,0 mm 0,7 km/h (0 Bft) O-SO 247 0 min 0 W/m 15,5 C 16,6 C 0,7 km/h (0 Bft)
10/10/2012 02:10 16,5 C 93 % 1014,5 hPa 0,0 mm 0,4 km/h (0 Bft) O-SO 247 0 min 0 W/m 15,4 C 16,5 C 0,4 km/h (0 Bft)
10/10/2012 02:20 16,4 C 93 % 1014,4 hPa 0,0 mm 0,0 km/h (0 Bft) O-SO 247 0 min 0 W/m 15,3 C 16,4 C 0,0 km/h (0 Bft)
10/10/2012 02:30 16,4 C 93 % 1014,4 hPa 0,0 mm 0,0 km/h (0 Bft) O-SO 247 0 min 0 W/m 15,3 C 16,4 C 0,0 km/h (0 Bft)
10/10/2012 02:40 16,3 C 94 % 1014,4 hPa 0,0 mm 0,0 km/h (0 Bft) O-SO 247 0 min 0 W/m 15,3 C 16,3 C 0,0 km/h (0 Bft)
10/10/2012 02:50 16,3 C 94 % 1014,4 hPa 0,0 mm 0,4 km/h (0 Bft) O-SO 247 0 min 0 W/m 15,3 C 16,3 C 3,6 km/h (1 Bft)
10/10/2012 03:02 16,3 C 94 % 1014,4 hPa 0,0 mm 0,0 km/h (0 Bft) O-SO 247 0 min 0 W/m 15,3 C 16,3 C 0,0 km/h (0 Bft)
10/10/2012 03:10 16,3 C 94 % 1014,3 hPa 0,0 mm 0,0 km/h (0 Bft) SO 225 0 min 0 W/m 15,3 C 16,3 C 0,0 km/h (0 Bft)
10/10/2012 03:20 16,3 C 94 % 1014,4 hPa 0,0 mm 0,0 km/h (0 Bft) O-SO 247 0 min 0 W/m 15,3 C 16,3 C 0,0 km/h (0 Bft)
10/10/2012 03:30 16,4 C 94 % 1014,4 hPa 0,0 mm 0,0 km/h (0 Bft) SO 225 0 min 0 W/m 15,4 C 16,4 C 0,0 km/h (0 Bft)
10/10/2012 03:40 16,4 C 94 % 1014,3 hPa 0,0 mm 1,1 km/h (1 Bft) SO 225 0 min 0 W/m 15,4 C 16,4 C 4,3 km/h (1 Bft)
10/10/2012 03:50 16,5 C 94 % 1014,2 hPa 0,0 mm 1,8 km/h (1 Bft) O-SO 247 0 min 0 W/m 15,5 C 16,5 C 6,1 km/h (2 Bft)
10/10/2012 04:00 16,5 C 94 % 1014,2 hPa 0,0 mm 0,0 km/h (0 Bft) O 270 0 min 0 W/m 15,5 C 16,5 C 0,0 km/h (0 Bft)
10/10/2012 04:10 16,5 C 94 % 1014,1 hPa 0,1 mm 3,2 km/h (1 Bft) O 270 0 min 0 W/m 15,5 C 16,5 C 11,5 km/h (2 Bft)
10/10/2012 04:20 16,6 C 94 % 1014,1 hPa 0,0 mm 0,0 km/h (0 Bft) O-SO 247 0 min 0 W/m 15,6 C 16,6 C 3,2 km/h (1 Bft)
10/10/2012 04:30 16,5 C 94 % 1013,9 hPa 0,0 mm 0,4 km/h (0 Bft) SO 225 0 min 0 W/m 15,5 C 16,5 C 0,4 km/h (0 Bft)
10/10/2012 04:40 16,4 C 94 % 1014,0 hPa 0,0 mm 2,5 km/h (1 Bft) O-SO 247 0 min 0 W/m 15,4 C 16,4 C 3,6 km/h (1 Bft)
10/10/2012 04:50 16,3 C 94 % 1014,0 hPa 0,0 mm 0,0 km/h (0 Bft) O-SO 247 0 min 0 W/m 15,3 C 16,3 C 0,0 km/h (0 Bft)
10/10/2012 05:00 16,2 C 94 % 1013,9 hPa 0,0 mm 0,0 km/h (0 Bft) O-SO 247 0 min 0 W/m 15,2 C 16,2 C 0,0 km/h (0 Bft)
10/10/2012 05:10 16,2 C 94 % 1013,8 hPa 0,0 mm 0,0 km/h (0 Bft) O-SO 247 0 min 0 W/m 15,2 C 16,2 C 0,0 km/h (0 Bft)
10/10/2012 05:20 16,1 C 94 % 1013,8 hPa 0,0 mm 0,0 km/h (0 Bft) O-SO 247 0 min 0 W/m 15,1 C 16,1 C 2,9 km/h (1 Bft)
10/10/2012 05:30 16,0 C 94 % 1013,7 hPa 0,0 mm 0,4 km/h (0 Bft) O-SO 247 0 min 0 W/m 15,0 C 16,0 C 3,6 km/h (1 Bft)
10/10/2012 05:40 15,9 C 94 % 1013,6 hPa 0,0 mm 1,1 km/h (1 Bft) S-SO 202 0 min 0 W/m 14,9 C 15,9 C 4,0 km/h (1 Bft)
10/10/2012 05:50 15,8 C 94 % 1013,6 hPa 0,0 mm 0,0 km/h (0 Bft) S-SO 202 0 min 0 W/m 14,8 C 15,8 C 0,0 km/h (0 Bft)
10/10/2012 06:00 15,8 C 94 % 1013,7 hPa 0,0 mm 1,1 km/h (1 Bft) O-SO 247 0 min 0 W/m 14,8 C 15,8 C 3,6 km/h (1 Bft)
10/10/2012 06:10 15,8 C 94 % 1013,6 hPa 0,0 mm 0,0 km/h (0 Bft) SO 225 0 min 0 W/m 14,8 C 15,8 C 0,0 km/h (0 Bft)
10/10/2012 06:20 15,6 C 94 % 1013,6 hPa 0,0 mm 0,4 km/h (0 Bft) SO 225 0 min 0 W/m 14,6 C 15,6 C 0,4 km/h (0 Bft)
10/10/2012 06:30 15,6 C 94 % 1013,6 hPa 0,0 mm 0,7 km/h (0 Bft) SO 225 0 min 0 W/m 14,6 C 15,6 C 3,6 km/h (1 Bft)
10/10/2012 06:40 15,7 C 95 % 1013,6 hPa 0,0 mm 0,7 km/h (0 Bft) S-SO 202 0 min 0 W/m 14,9 C 15,7 C 4,0 km/h (1 Bft)
10/10/2012 06:50 15,8 C 95 % 1013,6 hPa 0,0 mm 0,0 km/h (0 Bft) S 180 0 min 0 W/m 15,0 C 15,8 C 0,0 km/h (0 Bft)
10/10/2012 07:00 15,8 C 95 % 1013,6 hPa 0,0 mm 0,0 km/h (0 Bft) S 180 0 min 0 W/m 15,0 C 15,8 C 0,0 km/h (0 Bft)
10/10/2012 07:10 15,8 C 95 % 1013,6 hPa 0,0 mm 1,1 km/h (1 Bft) SO 225 0 min 0 W/m 15,0 C 15,8 C 3,6 km/h (1 Bft)
10/10/2012 07:20 15,8 C 95 % 1013,7 hPa 0,0 mm 0,0 km/h (0 Bft) SO 225 0 min 0 W/m 15,0 C 15,8 C 0,0 km/h (0 Bft)
10/10/2012 07:30 15,8 C 95 % 1013,8 hPa 0,0 mm 1,1 km/h (1 Bft) SO 225 0 min 0 W/m 15,0 C 15,8 C 4,3 km/h (1 Bft)
10/10/2012 07:40 15,8 C 95 % 1013,6 hPa 0,0 mm 1,1 km/h (1 Bft) SO 225 0 min 0 W/m 15,0 C 15,8 C 1,1 km/h (1 Bft)
10/10/2012 07:50 15,8 C 95 % 1013,7 hPa 0,0 mm 4,0 km/h (1 Bft) SO 225 0 min 0 W/m 15,0 C 15,8 C 4,0 km/h (1 Bft)
10/10/2012 08:00 15,8 C 95 % 1013,8 hPa 0,0 mm 0,0 km/h (0 Bft) SO 225 0 min 0 W/m 15,0 C 15,8 C 0,0 km/h (0 Bft)
10/10/2012 08:10 15,8 C 95 % 1013,9 hPa 0,0 mm 2,5 km/h (1 Bft) S-SO 202 0 min 0 W/m 15,0 C 15,8 C 4,0 km/h (1 Bft)
10/10/2012 08:20 15,9 C 95 % 1014,0 hPa 0,0 mm 0,0 km/h (0 Bft) S-SO 202 0 min 0 W/m 15,1 C 15,9 C 0,0 km/h (0 Bft)
10/10/2012 08:30 15,8 C 95 % 1014,0 hPa 0,0 mm 1,8 km/h (1 Bft) S-SO 202 0 min 0 W/m 15,0 C 15,8 C 4,0 km/h (1 Bft)
10/10/2012 08:40 15,9 C 95 % 1014,0 hPa 0,0 mm 0,0 km/h (0 Bft) S-SO 202 0 min 0 W/m 15,1 C 15,9 C 2,9 km/h (1 Bft)
10/10/2012 08:50 15,9 C 95 % 1014,1 hPa 0,0 mm 0,4 km/h (0 Bft) S-SO 202 0 min 0 W/m 15,1 C 15,9 C 0,4 km/h (0 Bft)
10/10/2012 09:00 15,9 C 95 % 1014,1 hPa 0,0 mm 0,0 km/h (0 Bft) S-SO 202 0 min 0 W/m 15,1 C 15,9 C 0,0 km/h (0 Bft)
10/10/2012 09:10 15,9 C 95 % 1014,1 hPa 0,0 mm 2,9 km/h (1 Bft) SO 225 0 min 0 W/m 15,1 C 15,9 C 7,2 km/h (2 Bft)
10/10/2012 09:20 16,1 C 95 % 1014,1 hPa 0,0 mm 0,4 km/h (0 Bft) S-SO 202 0 min 0 W/m 15,3 C 16,1 C 4,0 km/h (1 Bft)
10/10/2012 09:30 16,3 C 95 % 1014,2 hPa 0,0 mm 2,5 km/h (1 Bft) SO 225 0 min 0 W/m 15,5 C 16,3 C 3,6 km/h (1 Bft)
10/10/2012 09:40 16,5 C 95 % 1014,2 hPa 0,0 mm 0,7 km/h (0 Bft) O-SO 247 0 min 0 W/m 15,7 C 16,5 C 4,0 km/h (1 Bft)
10/10/2012 09:50 16,5 C 95 % 1014,3 hPa 0,0 mm 0,0 km/h (0 Bft) SO 225 0 min 0 W/m 15,7 C 16,5 C 0,0 km/h (0 Bft)
10/10/2012 10:00 16,6 C 95 % 1014,4 hPa 0,0 mm 0,7 km/h (0 Bft) SO 225 0 min 0 W/m 15,8 C 16,6 C 3,6 km/h (1 Bft)
10/10/2012 10:10 16,8 C 95 % 1014,4 hPa 0,0 mm 0,4 km/h (0 Bft) SO 225 0 min 0 W/m 16,0 C 16,8 C 3,6 km/h (1 Bft)
10/10/2012 10:20 16,8 C 95 % 1014,5 hPa 0,0 mm 0,0 km/h (0 Bft) SO 225 0 min 0 W/m 16,0 C 16,8 C 0,0 km/h (0 Bft)
10/10/2012 10:30 17,1 C 95 % 1014,5 hPa 0,0 mm 4,7 km/h (1 Bft) S-SO 202 0 min 0 W/m 16,3 C 17,1 C 6,5 km/h (2 Bft)
10/10/2012 10:40 17,3 C 95 % 1014,5 hPa 0,0 mm 0,0 km/h (0 Bft) O 270 0 min 0 W/m 16,5 C 17,3 C 0,0 km/h (0 Bft)
10/10/2012 10:50 17,4 C 94 % 1014,4 hPa 0,0 mm 0,4 km/h (0 Bft) SO 225 0 min 0 W/m 16,4 C 17,4 C 3,2 km/h (1 Bft)
10/10/2012 11:00 17,8 C 95 % 1014,5 hPa 0,0 mm 2,2 km/h (1 Bft) S-SO 202 0 min 0 W/m 17,0 C 17,8 C 6,5 km/h (2 Bft)
10/10/2012 11:10 18,2 C 92 % 1014,4 hPa 0,0 mm 0,7 km/h (0 Bft) S-SO 202 0 min 0 W/m 16,9 C 18,2 C 0,7 km/h (0 Bft)
10/10/2012 11:20 18,6 C 92 % 1014,6 hPa 0,0 mm 2,5 km/h (1 Bft) S-SO 202 0 min 0 W/m 17,3 C 18,6 C 8,3 km/h (2 Bft)
10/10/2012 11:30 19,6 C 89 % 1014,6 hPa 0,0 mm 3,2 km/h (1 Bft) O-SO 247 0 min 0 W/m 17,7 C 19,6 C 8,6 km/h (2 Bft)
10/10/2012 11:40 19,5 C 87 % 1014,6 hPa 0,0 mm 1,1 km/h (1 Bft) SO 225 0 min 0 W/m 17,3 C 19,5 C 3,6 km/h (1 Bft)
10/10/2012 11:50 19,4 C 86 % 1014,5 hPa 0,0 mm 2,2 km/h (1 Bft) S-SO 202 0 min 0 W/m 17,0 C 19,4 C 3,6 km/h (1 Bft)
10/10/2012 12:00 19,3 C 87 % 1014,5 hPa 0,0 mm 0,4 km/h (0 Bft) S-SO 202 0 min 0 W/m 17,1 C 19,3 C 4,3 km/h (1 Bft)
10/10/2012 12:10 20,3 C 85 % 1014,4 hPa 0,0 mm 4,0 km/h (1 Bft) O-NO 292 0 min 0 W/m 17,7 C 20,3 C 8,6 km/h (2 Bft)
10/10/2012 12:20 20,8 C 83 % 1014,3 hPa 0,0 mm 0,0 km/h (0 Bft) O 270 0 min 0 W/m 17,8 C 20,8 C 2,9 km/h (1 Bft)
10/10/2012 12:30 21,0 C 80 % 1014,4 hPa 0,0 mm 2,5 km/h (1 Bft) O 270 0 min 0 W/m 17,4 C 21,0 C 4,3 km/h (1 Bft)
10/10/2012 12:40 20,5 C 81 % 1014,3 hPa 0,0 mm 1,1 km/h (1 Bft) O-SO 247 0 min 0 W/m 17,1 C 20,5 C 1,1 km/h (1 Bft)
10/10/2012 12:50 20,6 C 81 % 1014,4 hPa 0,0 mm 1,1 km/h (1 Bft) O-SO 247 0 min 0 W/m 17,2 C 20,6 C 3,6 km/h (1 Bft)
10/10/2012 13:00 20,8 C 81 % 1014,2 hPa 0,0 mm 1,8 km/h (1 Bft) O-SO 247 0 min 0 W/m 17,4 C 20,8 C 9,4 km/h (2 Bft)
10/10/2012 13:10 21,4 C 79 % 1014,3 hPa 0,0 mm 1,1 km/h (1 Bft) S-SO 202 0 min 0 W/m 17,6 C 21,4 C 4,3 km/h (1 Bft)
10/10/2012 13:20 21,5 C 79 % 1014,2 hPa 0,0 mm 2,5 km/h (1 Bft) SO 225 0 min 0 W/m 17,7 C 21,5 C 6,1 km/h (2 Bft)
10/10/2012 13:30 21,8 C 77 % 1014,3 hPa 0,0 mm 0,7 km/h (0 Bft) O-SO 247 0 min 0 W/m 17,6 C 21,8 C 0,7 km/h (0 Bft)
10/10/2012 13:40 21,3 C 78 % 1014,0 hPa 0,0 mm 1,8 km/h (1 Bft) S-SO 202 0 min 0 W/m 17,3 C 21,3 C 4,0 km/h (1 Bft)
10/10/2012 13:50 20,9 C 78 % 1013,9 hPa 0,0 mm 5,8 km/h (2 Bft) SO 225 0 min 0 W/m 16,9 C 20,9 C 5,8 km/h (2 Bft)
10/10/2012 14:00 20,6 C 79 % 1013,9 hPa 0,0 mm 4,7 km/h (1 Bft) O-SO 247 0 min 0 W/m 16,8 C 20,6 C 6,1 km/h (2 Bft)
10/10/2012 14:10 20,6 C 79 % 1013,9 hPa 0,0 mm 0,7 km/h (0 Bft) O-SO 247 0 min 0 W/m 16,8 C 20,6 C 0,7 km/h (0 Bft)
10/10/2012 14:20 20,5 C 79 % 1013,6 hPa 0,0 mm 2,9 km/h (1 Bft) SO 225 0 min 0 W/m 16,7 C 20,5 C 7,6 km/h (2 Bft)
10/10/2012 14:30 20,4 C 78 % 1013,5 hPa 0,0 mm 5,0 km/h (1 Bft) O 270 0 min 0 W/m 16,4 C 20,4 C 10,8 km/h (2 Bft)
10/10/2012 14:40 20,5 C 78 % 1013,4 hPa 0,0 mm 5,0 km/h (1 Bft) O-SO 247 0 min 0 W/m 16,5 C 20,5 C 11,2 km/h (2 Bft)
10/10/2012 14:50 20,8 C 77 % 1013,5 hPa 0,0 mm 3,6 km/h (1 Bft) SO 225 0 min 0 W/m 16,6 C 20,8 C 4,0 km/h (1 Bft)
10/10/2012 15:00 20,9 C 77 % 1013,2 hPa 0,0 mm 2,9 km/h (1 Bft) SO 225 0 min 0 W/m 16,7 C 20,9 C 6,1 km/h (2 Bft)
10/10/2012 15:10 20,8 C 77 % 1013,3 hPa 0,0 mm 2,5 km/h (1 Bft) O-SO 247 0 min 0 W/m 16,6 C 20,8 C 7,9 km/h (2 Bft)
10/10/2012 15:20 20,5 C 78 % 1013,1 hPa 0,0 mm 2,9 km/h (1 Bft) S-SO 202 0 min 0 W/m 16,5 C 20,5 C 3,6 km/h (1 Bft)
10/10/2012 15:30 20,2 C 78 % 1013,0 hPa 0,0 mm 1,1 km/h (1 Bft) SO 225 0 min 0 W/m 16,2 C 20,2 C 2,9 km/h (1 Bft)
10/10/2012 15:40 19,9 C 80 % 1012,9 hPa 0,0 mm 3,6 km/h (1 Bft) O-SO 247 0 min 0 W/m 16,3 C 19,9 C 7,6 km/h (2 Bft)
10/10/2012 15:50 20,1 C 80 % 1012,7 hPa 0,0 mm 1,1 km/h (1 Bft) O 270 0 min 0 W/m 16,5 C 20,1 C 3,6 km/h (1 Bft)
10/10/2012 16:00 20,4 C 78 % 1012,6 hPa 0,0 mm 4,3 km/h (1 Bft) N 360 0 min 0 W/m 16,4 C 20,4 C 11,9 km/h (2 Bft)
10/10/2012 16:10 20,8 C 76 % 1012,6 hPa 0,0 mm 0,0 km/h (0 Bft) O-SO 247 0 min 0 W/m 16,4 C 20,8 C 0,0 km/h (0 Bft)
10/10/2012 16:20 20,9 C 75 % 1012,5 hPa 0,0 mm 4,0 km/h (1 Bft) O-SO 247 0 min 0 W/m 16,3 C 20,9 C 4,0 km/h (1 Bft)
10/10/2012 16:30 21,2 C 74 % 1012,6 hPa 0,0 mm 2,2 km/h (1 Bft) SO 225 0 min 0 W/m 16,4 C 21,2 C 4,3 km/h (1 Bft)
10/10/2012 16:40 21,1 C 75 % 1012,5 hPa 0,0 mm 1,4 km/h (1 Bft) SO 225 0 min 0 W/m 16,5 C 21,1 C 4,3 km/h (1 Bft)
10/10/2012 16:50 21,2 C 75 % 1012,5 hPa 0,0 mm 1,4 km/h (1 Bft) N 360 0 min 0 W/m 16,6 C 21,2 C 1,4 km/h (1 Bft)
10/10/2012 17:00 21,5 C 73 % 1012,5 hPa 0,0 mm 1,4 km/h (1 Bft) S-SO 202 0 min 0 W/m 16,4 C 21,5 C 6,8 km/h (2 Bft)
10/10/2012 17:10 21,6 C 72 % 1012,4 hPa 0,0 mm 2,5 km/h (1 Bft) O 270 0 min 0 W/m 16,3 C 21,6 C 6,1 km/h (2 Bft)
10/10/2012 17:20 21,8 C 72 % 1012,3 hPa 0,0 mm 0,4 km/h (0 Bft) O-SO 247 0 min 0 W/m 16,5 C 21,8 C 3,6 km/h (1 Bft)
10/10/2012 17:30 21,6 C 71 % 1012,3 hPa 0,0 mm 3,2 km/h (1 Bft) SO 225 0 min 0 W/m 16,1 C 21,6 C 6,8 km/h (2 Bft)
10/10/2012 17:40 21,1 C 72 % 1012,3 hPa 0,0 mm 0,4 km/h (0 Bft) SO 225 0 min 0 W/m 15,8 C 21,1 C 0,4 km/h (0 Bft)
10/10/2012 17:50 20,9 C 74 % 1012,2 hPa 0,0 mm 0,0 km/h (0 Bft) O 270 0 min 0 W/m 16,1 C 20,9 C 0,0 km/h (0 Bft)
10/10/2012 18:00 20,8 C 75 % 1012,2 hPa 0,0 mm 0,7 km/h (0 Bft) O-SO 247 0 min 0 W/m 16,2 C 20,8 C 3,2 km/h (1 Bft)
10/10/2012 18:10 20,5 C 75 % 1012,2 hPa 0,0 mm 0,7 km/h (0 Bft) O-SO 247 0 min 0 W/m 15,9 C 20,5 C 3,6 km/h (1 Bft)
10/10/2012 18:20 20,2 C 77 % 1012,2 hPa 0,0 mm 0,0 km/h (0 Bft) O-SO 247 0 min 0 W/m 16,0 C 20,2 C 0,0 km/h (0 Bft)
10/10/2012 18:30 20,1 C 77 % 1012,3 hPa 0,0 mm 0,0 km/h (0 Bft) O-SO 247 0 min 0 W/m 15,9 C 20,1 C 0,0 km/h (0 Bft)
10/10/2012 18:40 20,3 C 78 % 1012,2 hPa 0,0 mm 0,0 km/h (0 Bft) O-SO 247 0 min 0 W/m 16,3 C 20,3 C 0,0 km/h (0 Bft)
10/10/2012 18:50 20,2 C 77 % 1012,2 hPa 0,0 mm 0,0 km/h (0 Bft) O-SO 247 0 min 0 W/m 16,0 C 20,2 C 0,0 km/h (0 Bft)
10/10/2012 19:00 20,1 C 78 % 1012,1 hPa 0,0 mm 0,0 km/h (0 Bft) SO 225 0 min 0 W/m 16,1 C 20,1 C 0,0 km/h (0 Bft)
10/10/2012 19:10 19,7 C 78 % 1012,1 hPa 0,0 mm 0,0 km/h (0 Bft) SO 225 0 min 0 W/m 15,8 C 19,7 C 0,0 km/h (0 Bft)
10/10/2012 19:20 19,3 C 79 % 1012,2 hPa 0,0 mm 0,0 km/h (0 Bft) SO 225 0 min 0 W/m 15,6 C 19,3 C 0,0 km/h (0 Bft)
10/10/2012 19:30 18,9 C 80 % 1012,2 hPa 0,0 mm 0,0 km/h (0 Bft) SO 225 0 min 0 W/m 15,4 C 18,9 C 0,0 km/h (0 Bft)
10/10/2012 19:40 18,5 C 80 % 1012,2 hPa 0,0 mm 0,0 km/h (0 Bft) SO 225 0 min 0 W/m 15,0 C 18,5 C 0,0 km/h (0 Bft)
10/10/2012 19:50 18,0 C 81 % 1012,2 hPa 0,0 mm 0,0 km/h (0 Bft) SO 225 0 min 0 W/m 14,7 C 18,0 C 0,0 km/h (0 Bft)
10/10/2012 20:00 17,6 C 82 % 1012,2 hPa 0,0 mm 0,0 km/h (0 Bft) SO 225 0 min 0 W/m 14,5 C 17,6 C 0,0 km/h (0 Bft)
10/10/2012 20:10 17,2 C 83 % 1012,3 hPa 0,0 mm 0,0 km/h (0 Bft) SO 225 0 min 0 W/m 14,3 C 17,2 C 0,0 km/h (0 Bft)
10/10/2012 20:20 16,8 C 84 % 1012,3 hPa 0,0 mm 0,0 km/h (0 Bft) SO 225 0 min 0 W/m 14,1 C 16,8 C 0,0 km/h (0 Bft)
10/10/2012 20:30 16,5 C 85 % 1012,2 hPa 0,0 mm 0,0 km/h (0 Bft) SO 225 0 min 0 W/m 14,0 C 16,5 C 0,0 km/h (0 Bft)
10/10/2012 20:40 16,3 C 85 % 1012,2 hPa 0,0 mm 0,0 km/h (0 Bft) SO 225 0 min 0 W/m 13,8 C 16,3 C 0,0 km/h (0 Bft)
10/10/2012 20:50 16,1 C 86 % 1012,2 hPa 0,0 mm 0,0 km/h (0 Bft) SO 225 0 min 0 W/m 13,8 C 16,1 C 0,0 km/h (0 Bft)
10/10/2012 21:00 16,0 C 87 % 1012,1 hPa 0,0 mm 0,0 km/h (0 Bft) SO 225 0 min 0 W/m 13,8 C 16,0 C 0,0 km/h (0 Bft)
10/10/2012 21:10 15,8 C 87 % 1012,0 hPa 0,0 mm 0,0 km/h (0 Bft) SO 225 0 min 0 W/m 13,6 C 15,8 C 0,0 km/h (0 Bft)
10/10/2012 21:20 15,7 C 87 % 1012,0 hPa 0,0 mm 0,0 km/h (0 Bft) SO 225 0 min 0 W/m 13,5 C 15,7 C 0,0 km/h (0 Bft)
10/10/2012 21:30 15,5 C 88 % 1011,9 hPa 0,0 mm 0,0 km/h (0 Bft) SO 225 0 min 0 W/m 13,5 C 15,5 C 0,0 km/h (0 Bft)
10/10/2012 21:40 15,4 C 89 % 1012,0 hPa 0,0 mm 0,0 km/h (0 Bft) SO 225 0 min 0 W/m 13,6 C 15,4 C 0,0 km/h (0 Bft)
10/10/2012 21:50 15,3 C 89 % 1012,1 hPa 0,0 mm 0,0 km/h (0 Bft) SO 225 0 min 0 W/m 13,5 C 15,3 C 0,0 km/h (0 Bft)
10/10/2012 22:00 15,2 C 90 % 1012,0 hPa 0,0 mm 0,0 km/h (0 Bft) SO 225 0 min 0 W/m 13,6 C 15,2 C 0,0 km/h (0 Bft)
10/10/2012 22:10 15,1 C 90 % 1011,8 hPa 0,0 mm 0,0 km/h (0 Bft) SO 225 0 min 0 W/m 13,5 C 15,1 C 0,0 km/h (0 Bft)
10/10/2012 22:20 14,9 C 89 % 1011,9 hPa 0,0 mm 0,0 km/h (0 Bft) SO 225 0 min 0 W/m 13,1 C 14,9 C 0,0 km/h (0 Bft)
10/10/2012 22:30 14,8 C 90 % 1011,9 hPa 0,0 mm 0,0 km/h (0 Bft) SO 225 0 min 0 W/m 13,2 C 14,8 C 0,0 km/h (0 Bft)
10/10/2012 22:40 14,8 C 90 % 1011,8 hPa 0,0 mm 0,0 km/h (0 Bft) SO 225 0 min 0 W/m 13,2 C 14,8 C 0,0 km/h (0 Bft)
10/10/2012 22:50 14,6 C 90 % 1011,9 hPa 0,0 mm 0,0 km/h (0 Bft) SO 225 0 min 0 W/m 13,0 C 14,6 C 0,0 km/h (0 Bft)
10/10/2012 23:00 14,6 C 90 % 1011,9 hPa 0,0 mm 0,0 km/h (0 Bft) SO 225 0 min 0 W/m 13,0 C 14,6 C 0,0 km/h (0 Bft)
10/10/2012 23:10 14,5 C 91 % 1011,7 hPa 0,0 mm 0,0 km/h (0 Bft) SO 225 0 min 0 W/m 13,0 C 14,5 C 0,0 km/h (0 Bft)
10/10/2012 23:20 14,4 C 91 % 1011,6 hPa 0,0 mm 0,0 km/h (0 Bft) SO 225 0 min 0 W/m 12,9 C 14,4 C 0,0 km/h (0 Bft)
10/10/2012 23:30 14,3 C 91 % 1011,7 hPa 0,0 mm 0,0 km/h (0 Bft) SO 225 0 min 0 W/m 12,8 C 14,3 C 0,0 km/h (0 Bft)
10/10/2012 23:40 14,3 C 91 % 1011,5 hPa 0,0 mm 0,0 km/h (0 Bft) SO 225 0 min 0 W/m 12,8 C 14,3 C 0,0 km/h (0 Bft)
10/10/2012 23:50 14,5 C 91 % 1011,5 hPa 0,0 mm 0,0 km/h (0 Bft) SO 225 0 min 0 W/m 13,0 C 14,5 C 0,0 km/h (0 Bft)
_ Min-Heure 23:40 17:30 23:50 - 23:50 - - - - 23:40 23:40 23:50
Minimum _ 14,3 C 71 % 1011,5 hPa - 0,0 km/h (0 Bft) - - - - 12,8 C 14,3 C 0,0 km/h (0 Bft)
_ Max-Heure 17:20 11:00 01:00 04:10 13:50 - - 23:50 23:50 12:20 17:20 16:00
Maximum _ 21,8 C 95 % 1014,8 hPa 0,1 mm 5,8 km/h
SO (2 Bft)
- - 0 min 0 W/m 17,8 C 21,8 C 11,9 km/h
N (2 Bft)
Moyenne _ 17,7 C 87 % 1013,4 hPa #0,1 mm 1,1 km/h (1 Bft) SO - #0 min. 0 W/m 15,5 C 17,7 C 2,6 km/h (1 Bft)
Saint Bonnet de Bellac- Haute Vienne - France